sat.trackr.live / text

‹ back to catalog

GLOBALSTAR M069

NORAD 31573 · 2007-020C

PAYLOAD ACTIVE UNKNOWN

§ Identity

Operator
Country
GLOB
Launch date
2007-05-29
Launch site
TYMSC
Launch vehicle
Mass (kg)
RCS (m²)
2.42

Purposes: comms

External: N2YO · Heavens-Above · Gunter

§ Orbital elements

Epoch: 2026-09-19T23:37:00.806304Z

Period
117.70 min
Inclination
52.0067°
Eccentricity
0.0001500
Mean motion
12.23475082 rev/d
Perigee alt
1,576.2 km
Apogee alt
1,578.6 km
Semi-major
7,955.6 km
B*
3.1731e-4
RAAN
343.8139°
Arg perigee
354.2050°
Mean anomaly
177.3739°
Rev number
89,040

§ Raw data

GLOBALSTAR M0691 31573U 07020C   26262.98403711 -.00000058  00000+0  31731-3 0  99902 31573  52.0067 343.8139 0001500 354.2050 177.3739 12.23475082890409

JSON: /api/v1/satellites/31573 · /tle

For live sub-satellite position, see the globe view (requires WebGL).

§ Visibility from observer

Set your observer location to see the next 7 days of passes ≥ 10°. The values pass through the URL so the page stays shareable.

No JS? Fill the form by hand. The geolocation button needs JavaScript.